"Pseudo-MPEC" for ZTF03cD

Created 2019 Jun 15 19:10:11 UT using Find_Orb

Click here for an explanation of pseudo-MPECs

 
 Astrometry: 
     ZTF03cD  C2019 06 04.16856508 00 10.21 +46 15 41.0    ~68Eb 19.00r NEOCPI41
     ZTF03cD  C2019 06 04.17185208 00 10.64 +46 15 40.6    ~68Eb 18.74r NEOCPI41
     ZTF03cD  C2019 06 04.17513908 00 11.26 +46 15 39.6    ~68Eb 19.62r NEOCPI41
     ZTF03cD  C2019 06 04.17843708 00 11.80 +46 15 37.9    ~68Eb 18.60r NEOCPI41
     ZTF03cD  C2019 06 07.16900508 08 23.09 +46 00 47.9    ~67M7 19.17r NEOCPI41
     ZTF03cD  C2019 06 07.17189808 08 23.57 +46 00 47.5    ~67M7 19.07r NEOCPI41
     ZTF03cD  C2019 06 07.17478008 08 24.07 +46 00 46.5    ~67M7 18.90r NEOCPI41
     ZTF03cD  C2019 06 07.17767408 08 24.58 +46 00 44.6    ~67M7 18.52r NEOCPI41
     ZTF03cD KC2019 06 08k5\=W2oMt[X,\[*)afvt7885Tw=AB-W:djc7`]M:;3QPm4YZ0-q#734
     ZTF03cD KC2019 06 08F`1wX,?edYO.B@HAstrometryYmcN':%y-9XA#@lZfSk=eR\PpY$734
     ZTF03cD KC2019 06 08lSLredacted;G5T()3[7Lm2*3%dy20wbS'clickX#`\ImbO:x*v'734
     ZTF03cD 5C2019 06 08qWrxK+here(^dF8v0.forsL;*r:@B-explanation)K[/Rb'05%5U69
     ZTF03cD 5C2019 06 08taM^-?ZrN-DCaO!o8bRc3sqP'eYp9@Cw'c1ykDh%M*ZvvvO`;b32U69

Station data:
(734) Farpoint Observatory, Eskridge  (N38.890107 W96.001400)  US/Kansas.
   Observer G. Hug. 0.69-m reflector + CCD.
(I41) Palomar Mountain--ZTF  (N33.357340 W116.859780)  US/California. 1.2-m
   f/2.44 Oschin Schmidt + CCD.
(U69) iTelescope SRO Observatory, Auberry  (N37.070390 W119.413000)
   US/California. 0.61-m f/6.5 astrograph + CCD.

Orbital elements:  ZTF03cD
   Perihelion 2019 Jun 14.792134 +/- 7.4 TT = 19:00:40 (JD 2458649.292134)
Epoch 2019 Jun  8.0 TT = JDT 2458642.5   Ju: 0.5418           AutoNEOCP
M 359.41759383 +/- 0.8              (J2000 ecliptic)
n   0.08574715 +/- 0.143            Peri.   67.01835 +/- 2.4
a   5.09318622 +/- 5.67             Node    73.20715 +/- 3.9
e   0.5373080 +/- 0.516             Incl.   36.49858 +/- 1.1
P  11.49                   H 14.2   G  0.15   U 11.4  
q 2.35657621 +/- 0.196    Q 7.82979623 +/- 919
From 13 observations 2019 June 4-8; mean residual 0".39
Residuals in arcseconds: 
190604 I41  .42+  .22-    190607 I41  .24-  .40+    190608 734  .87+  .11+    
190604 I41  .70-  .34+    190607 I41  .04+  .34+    190608 U69  .62-  .06-    
190604 I41  .15+  .31+    190607 I41  .40+  .62-    190608 U69  .17-  .13-    
190604 I41  .14+  .43-    190608 734  .45-  .02+    
190607 I41  .29-  .13-    190608 734  .58+  .11+    

Ephemerides (geocentric):
Date (UTC) HH   RA              Dec         delta   r     elong  mag " sig PA
---- -- -- --  -------------   -----------  ------ ------ -----  --- ---- ---
2019 06 15 19  08 32 03.183   +45 09 28.18  3.0114 2.3566  42.0 19.4 11.5  14
2019 06 15 20  08 32 10.040   +45 09 11.45  3.0116 2.3566  42.0 19.4 11.6  15
2019 06 15 21  08 32 16.896   +45 08 54.70  3.0118 2.3566  42.0 19.4 11.7  15
2019 06 15 22  08 32 23.753   +45 08 37.94  3.0120 2.3566  42.0 19.4 11.8  15
2019 06 15 23  08 32 30.609   +45 08 21.16  3.0122 2.3566  41.9 19.4 11.9  15
2019 06 16 00  08 32 37.465   +45 08 04.36  3.0124 2.3566  41.9 19.4 12.0  15
2019 06 16 01  08 32 44.322   +45 07 47.55  3.0126 2.3566  41.9 19.4 12.1  15
2019 06 16 02  08 32 51.178   +45 07 30.72  3.0128 2.3566  41.9 19.4 12.2  15
2019 06 16 03  08 32 58.033   +45 07 13.87  3.0130 2.3566  41.9 19.4 12.3  15
2019 06 16 04  08 33 04.889   +45 06 57.00  3.0132 2.3566  41.9 19.4 12.5  16
2019 06 16 05  08 33 11.744   +45 06 40.11  3.0134 2.3566  41.9 19.4 12.6  16
2019 06 16 06  08 33 18.600   +45 06 23.21  3.0136 2.3566  41.9 19.4 12.7  16
2019 06 16 07  08 33 25.455   +45 06 06.29  3.0138 2.3566  41.8 19.4 12.8  16
2019 06 16 08  08 33 32.310   +45 05 49.35  3.0140 2.3566  41.8 19.4 12.9  16
2019 06 16 09  08 33 39.165   +45 05 32.40  3.0142 2.3566  41.8 19.4 13.0  16
2019 06 16 10  08 33 46.020   +45 05 15.42  3.0144 2.3566  41.8 19.4 13.1  16
2019 06 16 11  08 33 52.874   +45 04 58.43  3.0146 2.3566  41.8 19.4 13.2  16
2019 06 16 12  08 33 59.729   +45 04 41.42  3.0148 2.3566  41.8 19.4 13.3  16
2019 06 16 13  08 34 06.583   +45 04 24.40  3.0150 2.3566  41.8 19.4 13.4  17
2019 06 16 14  08 34 13.437   +45 04 07.36  3.0152 2.3566  41.8 19.4 13.6  17
2019 06 16 15  08 34 20.291   +45 03 50.29  3.0154 2.3566  41.7 19.4 13.7  17
2019 06 16 16  08 34 27.145   +45 03 33.22  3.0156 2.3566  41.7 19.4 13.8  17
2019 06 16 17  08 34 33.998   +45 03 16.12  3.0158 2.3566  41.7 19.4 13.9  17
2019 06 16 18  08 34 40.852   +45 02 59.01  3.0160 2.3566  41.7 19.4 14.0  17
2019 06 16 19  08 34 47.705   +45 02 41.88  3.0162 2.3566  41.7 19.4 14.1  17
2019 06 16 20  08 34 54.558   +45 02 24.73  3.0164 2.3566  41.7 19.4 14.2  17
2019 06 16 21  08 35 01.411   +45 02 07.56  3.0166 2.3566  41.7 19.4 14.4  18
2019 06 16 22  08 35 08.263   +45 01 50.38  3.0168 2.3566  41.7 19.4 14.5  18
2019 06 16 23  08 35 15.116   +45 01 33.18  3.0170 2.3566  41.6 19.4 14.6  18
2019 06 17 00  08 35 21.968   +45 01 15.96  3.0172 2.3566  41.6 19.4 14.7  18
2019 06 17 01  08 35 28.821   +45 00 58.72  3.0174 2.3566  41.6 19.4 14.8  18
2019 06 17 02  08 35 35.673   +45 00 41.47  3.0176 2.3567  41.6 19.4 14.9  18
2019 06 17 03  08 35 42.525   +45 00 24.20  3.0178 2.3567  41.6 19.4 15.1  18
2019 06 17 04  08 35 49.376   +45 00 06.91  3.0180 2.3567  41.6 19.4 15.2  18
2019 06 17 05  08 35 56.228   +44 59 49.60  3.0182 2.3567  41.6 19.4 15.3  18
2019 06 17 06  08 36 03.079   +44 59 32.28  3.0184 2.3567  41.6 19.4 15.4  19
2019 06 17 07  08 36 09.930   +44 59 14.94  3.0186 2.3567  41.5 19.4 15.6  19
2019 06 17 08  08 36 16.781   +44 58 57.58  3.0188 2.3567  41.5 19.4 15.7  19
2019 06 17 09  08 36 23.632   +44 58 40.20  3.0190 2.3567  41.5 19.4 15.8  19
2019 06 17 10  08 36 30.482   +44 58 22.81  3.0192 2.3567  41.5 19.4 15.9  19
2019 06 17 11  08 36 37.333   +44 58 05.40  3.0194 2.3567  41.5 19.4 16.0  19
2019 06 17 12  08 36 44.183   +44 57 47.97  3.0196 2.3567  41.5 19.4 16.2  19
2019 06 17 13  08 36 51.033   +44 57 30.52  3.0198 2.3567  41.5 19.4 16.3  19
2019 06 17 14  08 36 57.883   +44 57 13.06  3.0200 2.3567  41.5 19.4 16.4  19
2019 06 17 15  08 37 04.732   +44 56 55.58  3.0202 2.3567  41.4 19.4 16.5  20
2019 06 17 16  08 37 11.582   +44 56 38.08  3.0204 2.3567  41.4 19.4 16.7  20
2019 06 17 17  08 37 18.431   +44 56 20.56  3.0206 2.3567  41.4 19.4 16.8  20
2019 06 17 18  08 37 25.280   +44 56 03.03  3.0208 2.3567  41.4 19.4 16.9  20